IBE310 LEZL-LEAL

Flight info

Callsign IBE310
Flight time 0h 53m
Altitude 34000
Route BUDIT M445 ETURA T252 XEBAR M985 ASTRO
Aircraft A20N/M-SDE2E3FGHIRWXY/LB1

Departure

Time 2026-04-16 10:48
Airport Seville Airport (LEZL)

Arrival

Time 2026-04-16 11:41
Airport Alicante-Elche Miguel Hernández Airport (LEAL)
Time Latitude Longitude Altitude Speed Heading
2026-04-16 10:27 37.42215 -5.89950 110 ft 0 kts 314°
2026-04-16 10:39 37.42209 -5.89942 110 ft 2 kts 314°
2026-04-16 10:39 37.42202 -5.89933 110 ft 1 kts 314°
2026-04-16 10:39 37.42193 -5.89920 110 ft 2 kts 297°
2026-04-16 10:39 37.42187 -5.89902 110 ft 2 kts 283°
2026-04-16 10:40 37.42185 -5.89883 111 ft 2 kts 268°
2026-04-16 10:40 37.42188 -5.89865 111 ft 2 kts 252°
2026-04-16 10:40 37.42194 -5.89847 111 ft 2 kts 237°
2026-04-16 10:40 37.42200 -5.89837 111 ft 0 kts 226°
2026-04-16 10:41 37.42205 -5.89831 111 ft 0 kts 223°
2026-04-16 10:42 37.42201 -5.89836 111 ft 2 kts 224°
2026-04-16 10:43 37.42176 -5.89866 111 ft 8 kts 224°
2026-04-16 10:43 37.42132 -5.89919 111 ft 9 kts 216°
2026-04-16 10:43 37.42068 -5.89920 111 ft 10 kts 162°
2026-04-16 10:43 37.42003 -5.89898 111 ft 10 kts 205°
2026-04-16 10:44 37.41979 -5.89981 111 ft 11 kts 264°
2026-04-16 10:44 37.41975 -5.90084 111 ft 12 kts 272°
2026-04-16 10:44 37.41978 -5.90197 110 ft 14 kts 271°
2026-04-16 10:44 37.41978 -5.90321 109 ft 15 kts 270°
2026-04-16 10:45 37.41977 -5.90454 108 ft 16 kts 268°
2026-04-16 10:45 37.41976 -5.90595 108 ft 16 kts 270°
2026-04-16 10:45 37.41976 -5.90741 107 ft 17 kts 270°
2026-04-16 10:45 37.41976 -5.90892 106 ft 18 kts 262°
2026-04-16 10:46 37.41925 -5.91036 105 ft 18 kts 241°
2026-04-16 10:46 37.41862 -5.91168 105 ft 17 kts 231°
2026-04-16 10:46 37.41789 -5.91126 106 ft 15 kts 97°
2026-04-16 10:46 37.41788 -5.91107 106 ft 0 kts 90°
2026-04-16 10:47 37.41787 -5.91038 106 ft 17 kts 90°
2026-04-16 10:47 37.41788 -5.90580 109 ft 88 kts 90°
2026-04-16 10:47 37.41796 -5.89547 114 ft 147 kts 90°
2026-04-16 10:48 37.41812 -5.88088 297 ft 178 kts 89°
2026-04-16 10:48 37.41831 -5.86551 947 ft 179 kts 89°
2026-04-16 10:48 37.41837 -5.85000 1662 ft 180 kts 89°
2026-04-16 10:48 37.41835 -5.83426 2238 ft 187 kts 88°
2026-04-16 10:49 37.41935 -5.81741 2633 ft 203 kts 82°
2026-04-16 10:49 37.42187 -5.79931 3033 ft 220 kts 79°
2026-04-16 10:49 37.42491 -5.77955 3421 ft 240 kts 78°
2026-04-16 10:49 37.42926 -5.75936 4177 ft 243 kts 72°
2026-04-16 10:50 37.43536 -5.73962 4953 ft 246 kts 68°
2026-04-16 10:50 37.44222 -5.71995 5664 ft 251 kts 67°
2026-04-16 10:50 37.44954 -5.69927 6146 ft 268 kts 67°
2026-04-16 10:50 37.45719 -5.67758 6822 ft 276 kts 66°
2026-04-16 10:51 37.46495 -5.65552 7626 ft 280 kts 66°
2026-04-16 10:51 37.47277 -5.63322 8425 ft 283 kts 66°
2026-04-16 10:51 37.48069 -5.61061 9207 ft 287 kts 66°
2026-04-16 10:51 37.48871 -5.58768 9976 ft 291 kts 65°
2026-04-16 10:52 37.49686 -5.56442 10688 ft 297 kts 65°
2026-04-16 10:52 37.50536 -5.54013 11108 ft 313 kts 65°
2026-04-16 10:52 37.51432 -5.51449 11469 ft 331 kts 65°
2026-04-16 10:52 37.52378 -5.48735 11799 ft 348 kts 65°
2026-04-16 10:53 37.53372 -5.45885 12190 ft 363 kts 65°
2026-04-16 10:53 37.54387 -5.42964 12827 ft 368 kts 65°
2026-04-16 10:53 37.55413 -5.40014 13529 ft 372 kts 65°
2026-04-16 10:53 37.56449 -5.37026 14206 ft 376 kts 65°
2026-04-16 10:54 37.57492 -5.34017 14886 ft 378 kts 66°
2026-04-16 10:54 37.58545 -5.30978 15568 ft 381 kts 66°
2026-04-16 10:54 37.59572 -5.27901 16220 ft 384 kts 69°
2026-04-16 10:54 37.60357 -5.24684 16847 ft 388 kts 76°
2026-04-16 10:55 37.60841 -5.21339 17451 ft 392 kts 83°
2026-04-16 10:55 37.61113 -5.17924 18045 ft 396 kts 84°
2026-04-16 10:55 37.61345 -5.14479 18636 ft 399 kts 85°
2026-04-16 10:55 37.61575 -5.10993 19204 ft 402 kts 84°
2026-04-16 10:56 37.61810 -5.07479 19749 ft 406 kts 84°
2026-04-16 10:56 37.62049 -5.03938 20288 ft 410 kts 84°
2026-04-16 10:56 37.62292 -5.00365 20810 ft 413 kts 84°
2026-04-16 10:56 37.62539 -4.96745 21334 ft 417 kts 84°
2026-04-16 10:57 37.62787 -4.93104 21841 ft 420 kts 84°
2026-04-16 10:57 37.63037 -4.89437 22335 ft 424 kts 84°
2026-04-16 10:57 37.63288 -4.85738 22827 ft 427 kts 84°
2026-04-16 10:57 37.63540 -4.82009 23303 ft 430 kts 84°
2026-04-16 10:58 37.63793 -4.78257 23746 ft 434 kts 84°
2026-04-16 10:58 37.64049 -4.74454 24163 ft 438 kts 84°
2026-04-16 10:58 37.64305 -4.70631 24592 ft 441 kts 84°
2026-04-16 10:58 37.64560 -4.66784 24996 ft 444 kts 84°
2026-04-16 10:59 37.64816 -4.62898 25376 ft 448 kts 84°
2026-04-16 10:59 37.65072 -4.59006 25757 ft 450 kts 84°
2026-04-16 10:59 37.65329 -4.55073 26129 ft 453 kts 84°
2026-04-16 10:59 37.65585 -4.51123 26572 ft 454 kts 84°
2026-04-16 11:00 37.65839 -4.47182 27077 ft 453 kts 84°
2026-04-16 11:00 37.66093 -4.43244 27562 ft 452 kts 84°
2026-04-16 11:00 37.66345 -4.39311 28026 ft 452 kts 84°
2026-04-16 11:00 37.66596 -4.35369 28469 ft 452 kts 84°
2026-04-16 11:01 37.66846 -4.31428 28916 ft 451 kts 84°
2026-04-16 11:01 37.67094 -4.27490 29344 ft 451 kts 84°
2026-04-16 11:01 37.67339 -4.23572 29754 ft 451 kts 84°
2026-04-16 11:01 37.67584 -4.19645 30169 ft 451 kts 84°
2026-04-16 11:02 37.67829 -4.15712 30589 ft 451 kts 84°
2026-04-16 11:02 37.68071 -4.11792 31026 ft 450 kts 84°
2026-04-16 11:02 37.68311 -4.07881 31428 ft 450 kts 84°
2026-04-16 11:02 37.68550 -4.03967 31812 ft 449 kts 84°
2026-04-16 11:03 37.68787 -4.00058 32168 ft 450 kts 84°
2026-04-16 11:03 37.69024 -3.96144 32528 ft 449 kts 84°
2026-04-16 11:03 37.69493 -3.88295 33137 ft 451 kts 84°
2026-04-16 11:04 37.69728 -3.84353 33361 ft 453 kts 84°
2026-04-16 11:04 37.69963 -3.80392 33610 ft 455 kts 84°
2026-04-16 11:04 37.70196 -3.76425 33842 ft 457 kts 84°
2026-04-16 11:04 37.70429 -3.72442 34082 ft 458 kts 83°
2026-04-16 11:05 37.70661 -3.68443 34240 ft 460 kts 83°
2026-04-16 11:05 37.71123 -3.60419 34258 ft 460 kts 84°
2026-04-16 11:06 37.71576 -3.52386 34274 ft 460 kts 83°
2026-04-16 11:06 37.72026 -3.44356 34286 ft 461 kts 84°
2026-04-16 11:07 37.72471 -3.36297 34276 ft 462 kts 83°
2026-04-16 11:07 37.72912 -3.28228 34264 ft 462 kts 84°
2026-04-16 11:08 37.73348 -3.20168 34259 ft 462 kts 84°
2026-04-16 11:08 37.73779 -3.12105 34266 ft 462 kts 84°
2026-04-16 11:09 37.74204 -3.04043 34276 ft 462 kts 84°
2026-04-16 11:09 37.74622 -2.95991 34293 ft 462 kts 84°
2026-04-16 11:10 37.75163 -2.87958 34295 ft 460 kts 77°
2026-04-16 11:10 37.76927 -2.80290 34299 ft 455 kts 63°
2026-04-16 11:11 37.80053 -2.73472 34302 ft 448 kts 48°
2026-04-16 11:11 37.84170 -2.67670 34309 ft 444 kts 41°
2026-04-16 11:12 37.88465 -2.62082 34305 ft 445 kts 41°
2026-04-16 11:12 37.92735 -2.56449 34309 ft 445 kts 41°
2026-04-16 11:13 37.96993 -2.50788 34312 ft 445 kts 41°
2026-04-16 11:13 38.01228 -2.45133 34313 ft 443 kts 41°
2026-04-16 11:14 38.05457 -2.39480 34308 ft 443 kts 41°
2026-04-16 11:14 38.09680 -2.33819 34302 ft 443 kts 42°
2026-04-16 11:15 38.13903 -2.28149 34295 ft 443 kts 42°
2026-04-16 11:15 38.18412 -2.22938 34294 ft 437 kts 32°
2026-04-16 11:16 38.23536 -2.18954 34289 ft 430 kts 21°
2026-04-16 11:16 38.29073 -2.16299 34292 ft 426 kts 11°
2026-04-16 11:17 38.34831 -2.14516 34287 ft 428 kts
2026-04-16 11:17 38.40619 -2.12781 34287 ft 428 kts
2026-04-16 11:18 38.46359 -2.10775 34088 ft 432 kts 16°
2026-04-16 11:18 38.49102 -2.09227 33830 ft 433 kts 22°
2026-04-16 11:18 38.51696 -2.07287 33499 ft 435 kts 29°
2026-04-16 11:18 38.54108 -2.04978 33045 ft 436 kts 36°
2026-04-16 11:19 38.56308 -2.02323 32452 ft 439 kts 43°
2026-04-16 11:19 38.58288 -1.99355 31808 ft 441 kts 48°
2026-04-16 11:19 38.60168 -1.96286 31148 ft 443 kts 49°
2026-04-16 11:19 38.62039 -1.93181 30477 ft 443 kts 50°
2026-04-16 11:20 38.63911 -1.90080 29781 ft 444 kts 50°
2026-04-16 11:20 38.65793 -1.86970 29065 ft 444 kts 50°
2026-04-16 11:20 38.67677 -1.83868 28354 ft 444 kts 50°
2026-04-16 11:20 38.69561 -1.80770 27634 ft 444 kts 50°
2026-04-16 11:21 38.71452 -1.77668 26900 ft 444 kts 50°
2026-04-16 11:21 38.73334 -1.74575 26204 ft 442 kts 50°
2026-04-16 11:21 38.75203 -1.71502 25706 ft 436 kts 50°
2026-04-16 11:21 38.77046 -1.68464 25202 ft 431 kts 50°
2026-04-16 11:22 38.78868 -1.65461 24690 ft 426 kts 50°
2026-04-16 11:22 38.80665 -1.62490 24171 ft 422 kts 50°
2026-04-16 11:22 38.82449 -1.59542 23660 ft 418 kts 50°
2026-04-16 11:22 38.84213 -1.56624 23151 ft 414 kts 50°
2026-04-16 11:23 38.85960 -1.53731 22649 ft 411 kts 50°
2026-04-16 11:23 38.87692 -1.50861 22149 ft 407 kts 50°
2026-04-16 11:23 38.89412 -1.48006 21646 ft 404 kts 50°
2026-04-16 11:23 38.91110 -1.45187 21146 ft 400 kts 50°
2026-04-16 11:24 38.92799 -1.42379 20649 ft 397 kts 50°
2026-04-16 11:24 38.94472 -1.39594 20145 ft 394 kts 50°
2026-04-16 11:24 38.96133 -1.36828 19638 ft 391 kts 50°
2026-04-16 11:24 38.97781 -1.34071 19135 ft 389 kts 52°
2026-04-16 11:25 38.99025 -1.31017 18603 ft 392 kts 72°
2026-04-16 11:25 38.99311 -1.27560 18082 ft 395 kts 92°
2026-04-16 11:25 38.98629 -1.24175 17582 ft 397 kts 113°
2026-04-16 11:25 38.97062 -1.21280 17061 ft 398 kts 134°
2026-04-16 11:26 38.94891 -1.19107 16557 ft 397 kts 144°
2026-04-16 11:26 38.92636 -1.17091 16036 ft 396 kts 144°
2026-04-16 11:26 38.90391 -1.15077 15520 ft 394 kts 144°
2026-04-16 11:26 38.88169 -1.13061 15014 ft 392 kts 143°
2026-04-16 11:27 38.85966 -1.11045 14501 ft 390 kts 143°
2026-04-16 11:27 38.83772 -1.09028 14000 ft 388 kts 143°
2026-04-16 11:27 38.81597 -1.07024 13503 ft 386 kts 143°
2026-04-16 11:27 38.79432 -1.05026 12990 ft 384 kts 143°
2026-04-16 11:28 38.77282 -1.03046 12630 ft 377 kts 143°
2026-04-16 11:28 38.75188 -1.01119 12398 ft 365 kts 143°
2026-04-16 11:28 38.73169 -0.99263 12202 ft 354 kts 143°
2026-04-16 11:28 38.71187 -0.97442 11809 ft 350 kts 143°
2026-04-16 11:29 38.69225 -0.95641 11387 ft 347 kts 143°
2026-04-16 11:29 38.67277 -0.93853 10973 ft 345 kts 143°
2026-04-16 11:29 38.65338 -0.92075 10613 ft 340 kts 142°
2026-04-16 11:29 38.63450 -0.90344 10370 ft 330 kts 143°
2026-04-16 11:30 38.61620 -0.88669 10263 ft 318 kts 142°
2026-04-16 11:30 38.59845 -0.87045 9994 ft 311 kts 143°
2026-04-16 11:30 38.58106 -0.85454 9737 ft 305 kts 143°
2026-04-16 11:30 38.56405 -0.83903 9517 ft 297 kts 144°
2026-04-16 11:31 38.54567 -0.82840 9315 ft 289 kts 172°
2026-04-16 11:31 38.52633 -0.83121 9118 ft 279 kts 206°
2026-04-16 11:31 38.51106 -0.84542 8871 ft 270 kts 230°
2026-04-16 11:31 38.49956 -0.86380 8620 ft 265 kts 234°
2026-04-16 11:32 38.48795 -0.88197 8276 ft 265 kts 229°
2026-04-16 11:32 38.47519 -0.89877 7958 ft 264 kts 224°
2026-04-16 11:32 38.46137 -0.91397 7646 ft 262 kts 218°
2026-04-16 11:32 38.44678 -0.92761 7353 ft 260 kts 214°
2026-04-16 11:33 38.43155 -0.93987 7056 ft 258 kts 210°
2026-04-16 11:33 38.41592 -0.95073 6768 ft 256 kts 206°
2026-04-16 11:33 38.39996 -0.96032 6483 ft 253 kts 203°
2026-04-16 11:33 38.38372 -0.96847 6185 ft 251 kts 195°
2026-04-16 11:34 38.36667 -0.96873 5844 ft 248 kts 158°
2026-04-16 11:34 38.35252 -0.95715 5592 ft 241 kts 135°
2026-04-16 11:34 38.34190 -0.94139 5506 ft 229 kts 123°
2026-04-16 11:34 38.33422 -0.92397 5230 ft 227 kts 110°
2026-04-16 11:35 38.32976 -0.90479 4901 ft 227 kts 100°
2026-04-16 11:35 38.32731 -0.88504 4593 ft 226 kts 97°
2026-04-16 11:35 38.32515 -0.86528 4289 ft 225 kts 98°
2026-04-16 11:35 38.32283 -0.84608 4120 ft 213 kts 99°
2026-04-16 11:36 38.32042 -0.82801 3978 ft 206 kts 99°
2026-04-16 11:36 38.31792 -0.81023 3739 ft 202 kts 99°
2026-04-16 11:36 38.31546 -0.79318 3545 ft 193 kts 99°
2026-04-16 11:36 38.31308 -0.77671 3269 ft 188 kts 100°
2026-04-16 11:37 38.31075 -0.76064 3002 ft 183 kts 99°
2026-04-16 11:37 38.30850 -0.74493 2747 ft 179 kts 100°
2026-04-16 11:37 38.30631 -0.72967 2504 ft 173 kts 100°
2026-04-16 11:37 38.30422 -0.71503 2300 ft 165 kts 101°
2026-04-16 11:38 38.30223 -0.70105 2080 ft 158 kts 100°
2026-04-16 11:38 38.30035 -0.68776 1871 ft 150 kts 101°
2026-04-16 11:38 38.29853 -0.67486 1693 ft 149 kts 101°
2026-04-16 11:38 38.29672 -0.66199 1520 ft 145 kts 101°
2026-04-16 11:39 38.29503 -0.64998 1323 ft 135 kts 101°
2026-04-16 11:39 38.29338 -0.63830 1155 ft 134 kts 99°
2026-04-16 11:39 38.29177 -0.62664 984 ft 135 kts 101°
2026-04-16 11:39 38.29011 -0.61495 809 ft 134 kts 99°
2026-04-16 11:40 38.28850 -0.60334 631 ft 134 kts 102°
2026-04-16 11:40 38.28691 -0.59168 460 ft 134 kts 100°
2026-04-16 11:40 38.28525 -0.58010 283 ft 134 kts 101°
2026-04-16 11:40 38.28368 -0.56855 163 ft 130 kts 101°
2026-04-16 11:41 38.28226 -0.55878 123 ft 90 kts 101°
2026-04-16 11:41 38.28146 -0.55319 107 ft 37 kts 99°
2026-04-16 11:41 38.28124 -0.54992 97 ft 37 kts 77°
2026-04-16 11:41 38.28182 -0.54754 91 ft 22 kts 67°
2026-04-16 11:42 38.28247 -0.54766 92 ft 11 kts 281°
2026-04-16 11:42 38.28261 -0.54857 96 ft 12 kts 280°
2026-04-16 11:42 38.28280 -0.54999 101 ft 20 kts 280°
2026-04-16 11:42 38.28301 -0.55146 107 ft 12 kts 280°
2026-04-16 11:43 38.28343 -0.55206 111 ft 9 kts
2026-04-16 11:43 38.28387 -0.55161 113 ft 8 kts 50°
2026-04-16 11:43 38.28416 -0.55099 112 ft 12 kts 70°
2026-04-16 11:43 38.28428 -0.55005 108 ft 10 kts 53°
2026-04-16 11:44 38.28499 -0.54973 109 ft 11 kts 11°
2026-04-16 11:44 38.28574 -0.54957 110 ft 11 kts 353°
2026-04-16 11:44 38.28604 -0.54998 116 ft 0 kts 284°
2026-04-16 11:44 38.28606 -0.55005 117 ft 1 kts 281°
2026-04-16 11:45 38.28609 -0.55023 120 ft 1 kts 280°
2026-04-16 11:45 38.28610 -0.55033 122 ft 0 kts 279°
2026-04-16 11:48 38.28610 -0.55030 121 ft 0 kts 279°